Powrót do katalogu

LEMUR-2 POLO-11

AktywnyNaukaSSO
NORAD 68493·PAYLOAD·🇱🇺 Luxembourg

Wystrzelony Mar 30, 2026 z Vandenberg Space Force Base

Loading…

Następne Przeloty (najbliższe 24 godziny)

TLE

ŚwieżeSource: Space-Track

Epoka: Sep 14, 2026, 14:20 UTC

1 68493U 26067CF  26257.59739414  .00004252  00000-0  42019-3 0  9997
2 68493  97.7746 214.6139 0005246  85.3129 274.8689 14.92438237 25052

Śledź LEMUR-2 POLO-11 w czasie rzeczywistym z AllMySat

Download on the App Store